Location: Seattle
(47.6064°N, 122.3308°W)
Time: 05:45:58
(UTC-08:00)

S-56A Canister/Altair - Pass Details

Date: 03 December 2020
Orbit: 633 x 2499 km, 38.9° (Epoch: 23 January)

Event Time Altitude Azimuth Distance (km) Brightness Sun altitude
Rises 23:05:43 0° 275° (W) 4,914 11.8 -62.5°
Enters shadow 23:06:54 - 273° (W) 4,539 11.6 -62.6°
Reaches altitude 10° 23:10:02 10° 264° (W) 3,572 - -62.8°
Maximum altitude 23:16:37 25° 214° (SW) 2,115 - -63.3°
Drops below altitude 10° 23:21:33 10° 162° (SSE) 2,598 - -63.6°
Sets 23:24:10 0° 147° (SSE) 3,337 - -63.7°
